Location: Camerons Lookout
(40.9833°S, 175.9333°E)
Time: 09:43:34
(UTC+00:00)

Cosmos 1486 Rocket - Pass Details

Date: 14 January 2026
Orbit: 754 x 779 km, 74.1° (Epoch: 16 February)

Event Time Altitude Azimuth Distance (km) Brightness Sun altitude
Exits shadow 10:14:37 43° 51° (NE) 1,064 4.3 -20.8°
Maximum altitude 10:15:23 47° 77° (ENE) 1,016 4.3 -20.8°
Drops below altitude 10° 10:20:23 10° 149° (SSE) 2,316 6.8 -21.3°
Sets 10:22:51 0° 154° (SSE) 3,247 7.7 -21.6°
